User: anonymous   Login
Location: Remedello Sotto
(45.2500°N, 10.3667°E)
Time: 21:58:09
(UTC+00:00)
Language:

Cosmos 2278 Rocket - Orbit

View from above orbital plane
View from above orbital plane
View from above satellite
View from above satellite

Ground track
Ground track

The orbit data is extracted from the following two-line orbital elements,

1 23088U 94023B   24175.76028520 -.00000010  00000-0  19611-4 0  9992
2 23088  71.0000 301.0583 0003570 201.4032 158.6942 14.14847361557830
Epoch (UTC): 23 June 2024 18:14:48
Eccentricity: 0.0003570
inclination: 71.0000°
perigee height: 840 km
apogee height: 845 km
right ascension of ascending node: 301.0583°
argument of perigee: 201.4032°
revolutions per day: 14.14847361
mean anomaly at epoch: 158.6942°
orbit number at epoch: 55783

The dashed part of the orbit path shows where the satellite is in the earth's shadow,  

DLR